Location: Владивосток
(43.1151°N, 131.8856°E)
Time: 06:02:28
(UTC+10:00)

BlueWalker 3 - Pass Details

Date: 11 December 2022
Orbit: 499 x 517 km, 53.2° (Epoch: 04 February)

Event Time Altitude Azimuth Distance (km) Brightness Sun altitude
Rises 18:40:44 0° 307° (NW) 2,629 6.1 -11.2°
Maximum altitude 18:46:52 72° 33° (NNE) 538 1.9 -12.2°
Drops below altitude 10° 18:50:45 10° 119° (ESE) 1,714 4.3 -12.9°
Enters shadow 18:50:49 10° 120° (ESE) 1,743 4.3 -12.9°
